Darstellungsparameter: Aktuell verwendete Einstellungen:
Skalierung der Graphiken ... ?
xyx+y,   Skalierungsfaktor:      Skalierung: Modus: x, Faktor: 1
Darstellungszeitraum ... ?
Vom - - bis: - -   Zeitraum: 12.05.2021 - 12.05.2021
Min/Max/Avg-Anzeige ... ?
Zeige MMA aktuell
Zeige MMA Monat
Zeige MMA alles
Zeige --A aktuell
Zeige --A Monat
Zeige --A alles
Keine MMA-Anzeige
MMA:
Keine MMA-Graphiken
MMA-Basis: 12.05.2021 - 12.05.2021
Quicknavigation für Darstellung... ?
Tage:      1T, 2T, 3T, 5T -1T -2T -3T -5T +1T +2T +3T +5T
Wochen: 1W, 2W, 3W -1W -2W -3W +1W +2W +3W
Monate: 1M, 3M, 6M -1M -3M -6M +1M +3M +6M
Jahre:    1J, 3J, 5J, 10J -1J -3J -5J -10J +1J +3J +5J +10J
Nutze für die Darstellung ... ?
Originaldaten oder Mittelwerte auf ...
Stundenbasis Tagesbasis Wochenbasis
Monatsbasis Jahresbasis      Datenbasis: Original-Daten
Darstellen als:
Statistik (Auto) Statistik J:M      Darstellung:
Zur Graphik,    zurück zur Übersicht aller Sensoren.
 
Tabellarische Datenbersicht: ?
 
Sensor: Nr:Datum:Temp:Feuchte:
Aussen-T/F 1 12-05-2021 00:05:17 11.6 C 45 %
2 12-05-2021 00:15:17 11.6 C 46 %
3 12-05-2021 00:25:17 11.5 C 46 %
4 12-05-2021 00:35:17 11.5 C 46 %
5 12-05-2021 00:45:18 11.7 C 45 %
6 12-05-2021 00:55:18 11.3 C 46 %
7 12-05-2021 01:05:17 11.4 C 46 %
8 12-05-2021 01:15:17 11.3 C 46 %
9 12-05-2021 01:25:17 11.2 C 46 %
10 12-05-2021 01:35:17 11.2 C 47 %
11 12-05-2021 01:45:17 11.2 C 47 %
12 12-05-2021 01:55:17 11.2 C 46 %
13 12-05-2021 02:05:18 11.2 C 46 %
14 12-05-2021 02:15:18 11.1 C 46 %
15 12-05-2021 02:25:18 11 C 46 %
16 12-05-2021 02:35:17 11 C 46 %
17 12-05-2021 02:45:17 10.9 C 46 %
18 12-05-2021 02:55:17 10.8 C 46 %
19 12-05-2021 03:05:17 10.8 C 46 %
20 12-05-2021 03:15:17 10.7 C 47 %
21 12-05-2021 03:25:17 10.6 C 46 %
22 12-05-2021 03:35:17 10.9 C 45 %
23 12-05-2021 03:45:17 11.3 C 42 %
24 12-05-2021 03:55:17 11.1 C 44 %
25 12-05-2021 04:05:17 11.1 C 44 %
Sensor: Nr:Datum:Temp:Feuchte:
Aussen-T/F 26 12-05-2021 04:16:17 11 C 43 %
27 12-05-2021 04:25:17 10.8 C 46 %
28 12-05-2021 04:35:18 10.7 C 46 %
29 12-05-2021 04:45:17 10.8 C 46 %
30 12-05-2021 04:55:17 10.9 C 45 %
31 12-05-2021 05:05:17 11.1 C 43 %
32 12-05-2021 05:15:17 11.1 C 43 %
33 12-05-2021 05:25:17 11 C 43 %
34 12-05-2021 05:36:17 10.9 C 45 %
35 12-05-2021 05:45:17 10.9 C 45 %
36 12-05-2021 05:55:17 10.9 C 45 %
37 12-05-2021 06:06:17 10.9 C 44 %
38 12-05-2021 06:15:17 10.9 C 44 %
39 12-05-2021 06:25:17 10.8 C 44 %
40 12-05-2021 06:36:17 10.9 C 44 %
41 12-05-2021 06:45:18 10.9 C 44 %
42 12-05-2021 06:55:18 10.9 C 43 %
43 12-05-2021 07:05:17 10.8 C 43 %
44 12-05-2021 07:15:17 10.7 C 44 %
45 12-05-2021 07:25:17 10.6 C 44 %
46 12-05-2021 07:35:17 10.7 C 44 %
47 12-05-2021 07:46:17 10.8 C 44 %
48 12-05-2021 07:56:17 11.3 C 42 %
49 12-05-2021 08:06:17 11.5 C 41 %
50 12-05-2021 08:16:17 11.8 C 41 %
Sensor: Nr:Datum:Temp:Feuchte:
Aussen-T/F 51 12-05-2021 08:26:17 11.8 C 40 %
52 12-05-2021 08:36:17 12.1 C 40 %
53 12-05-2021 08:46:17 12.3 C 39 %
54 12-05-2021 08:56:17 12.7 C 39 %
55 12-05-2021 09:05:18 12.9 C 39 %
56 12-05-2021 09:16:17 12.9 C 38 %
57 12-05-2021 09:26:17 13.4 C 37 %
58 12-05-2021 09:35:18 13.8 C 36 %
59 12-05-2021 09:45:17 14.4 C 36 %
60 12-05-2021 09:55:17 14.3 C 36 %
61 12-05-2021 10:05:17 14.7 C 35 %
62 12-05-2021 10:16:17 14.7 C 35 %
63 12-05-2021 10:26:17 14.7 C 35 %
64 12-05-2021 10:36:17 15.2 C 34 %
65 12-05-2021 10:45:18 15.3 C 34 %
66 12-05-2021 10:55:18 15.7 C 34 %
67 12-05-2021 11:05:18 15.1 C 33 %
68 12-05-2021 11:16:17 15.2 C 33 %
69 12-05-2021 11:26:17 15.5 C 33 %
70 12-05-2021 11:36:17 16 C 33 %
71 12-05-2021 11:46:17 16.2 C 32 %
72 12-05-2021 11:56:17 15.4 C 32 %
73 12-05-2021 12:05:18 16.3 C 32 %
74 12-05-2021 12:15:17 16.5 C 31 %
75 12-05-2021 12:25:18 16.4 C 31 %
Sensor: Nr:Datum:Temp:Feuchte:
Aussen-T/F 76 12-05-2021 12:36:17 17.5 C 30 %
77 12-05-2021 12:45:18 17.5 C 29 %
78 12-05-2021 12:55:18 17.1 C 30 %
79 12-05-2021 13:05:18 17.1 C 29 %
80 12-05-2021 13:16:17 17.2 C 30 %
81 12-05-2021 13:26:17 18 C 29 %
82 12-05-2021 13:36:17 17.8 C 28 %
83 12-05-2021 13:45:18 18.1 C 27 %
84 12-05-2021 13:55:18 20.9 C 25 %
85 12-05-2021 14:06:17 21.7 C 24 %
86 12-05-2021 14:16:17 18.3 C 26 %
87 12-05-2021 14:26:17 19.6 C 26 %
88 12-05-2021 14:36:17 21.9 C 24 %
89 12-05-2021 14:46:17 18.4 C 26 %
90 12-05-2021 14:56:17 21.1 C 23 %
91 12-05-2021 15:06:17 24.3 C 20 %
92 12-05-2021 15:16:17 24.6 C 20 %
93 12-05-2021 15:26:17 23.5 C 20 %
94 12-05-2021 15:36:18 19.5 C 24 %
95 12-05-2021 15:46:17 18.6 C 25 %
96 12-05-2021 15:56:17 18.6 C 25 %
97 12-05-2021 16:06:17 19.3 C 24 %
98 12-05-2021 16:15:18 19 C 24 %
99 12-05-2021 16:25:18 18.7 C 25 %
100 12-05-2021 16:36:17 18.2 C 25 %
Sensor: Nr:Datum:Temp:Feuchte:
Aussen-T/F 101 12-05-2021 16:46:17 18.8 C 25 %
102 12-05-2021 16:56:17 19.1 C 24 %
103 12-05-2021 17:06:17 19.3 C 24 %
104 12-05-2021 17:16:17 19.4 C 24 %
105 12-05-2021 17:26:17 19.3 C 24 %
106 12-05-2021 17:36:17 19 C 25 %
107 12-05-2021 17:46:17 18.2 C 27 %
108 12-05-2021 17:56:17 20.4 C 24 %
109 12-05-2021 18:06:17 21 C 23 %
110 12-05-2021 18:16:17 20 C 23 %
111 12-05-2021 18:26:17 18.7 C 25 %
112 12-05-2021 18:36:17 18.7 C 26 %
113 12-05-2021 18:46:17 18.7 C 26 %
114 12-05-2021 18:56:17 18.9 C 25 %
115 12-05-2021 19:06:17 18.9 C 25 %
116 12-05-2021 19:16:17 18.7 C 25 %
117 12-05-2021 19:26:17 18.8 C 25 %
118 12-05-2021 19:36:17 18.9 C 25 %
119 12-05-2021 19:46:18 18.7 C 25 %
120 12-05-2021 19:56:18 18.8 C 25 %
121 12-05-2021 20:06:17 18.5 C 25 %
122 12-05-2021 20:16:17 18.1 C 26 %
123 12-05-2021 20:26:17 17.5 C 26 %
124 12-05-2021 20:36:17 17.1 C 26 %
125 12-05-2021 20:46:17 16 C 30 %
Sensor: Nr:Datum:Temp:Feuchte:
Aussen-T/F 126 12-05-2021 20:56:17 15.1 C 34 %
127 12-05-2021 21:06:17 14.1 C 34 %
128 12-05-2021 21:16:17 13.9 C 34 %
129 12-05-2021 21:26:17 13.8 C 34 %
130 12-05-2021 21:36:17 13.4 C 35 %
131 12-05-2021 21:46:17 12.9 C 36 %
132 12-05-2021 21:56:17 12.4 C 37 %
133 12-05-2021 22:06:17 12.4 C 38 %
134 12-05-2021 22:16:17 12 C 38 %
135 12-05-2021 22:26:17 11.6 C 40 %
136 12-05-2021 22:36:18 11.5 C 40 %
137 12-05-2021 22:46:17 11.5 C 40 %
138 12-05-2021 22:56:17 11.2 C 40 %
139 12-05-2021 23:06:17 11.1 C 40 %
140 12-05-2021 23:16:17 10.8 C 41 %
141 12-05-2021 23:26:17 10.6 C 42 %
142 12-05-2021 23:36:18 10.3 C 42 %
143 12-05-2021 23:46:17 10 C 42 %
144 12-05-2021 23:56:17 9.7 C 44 %
Sensor: Nr:Datum:Temp:Feuchte:
G-T/H 1 12-05-2021 00:05:17 15.4 C 64 %
2 12-05-2021 00:15:17 15.3 C 65 %
3 12-05-2021 00:25:17 15.3 C 65 %
4 12-05-2021 00:35:17 15.3 C 65 %
5 12-05-2021 00:45:18 15.3 C 65 %
6 12-05-2021 00:55:18 15.3 C 65 %
7 12-05-2021 01:05:17 15.2 C 65 %
8 12-05-2021 01:15:17 15.3 C 65 %
9 12-05-2021 01:25:17 15.3 C 65 %
10 12-05-2021 01:35:17 15.2 C 65 %
11 12-05-2021 01:45:17 15.2 C 65 %
12 12-05-2021 01:55:17 15.2 C 65 %
13 12-05-2021 02:05:18 15.2 C 65 %
14 12-05-2021 02:15:18 15.2 C 65 %
15 12-05-2021 02:25:18 15.2 C 65 %
16 12-05-2021 02:35:17 15.2 C 65 %
17 12-05-2021 02:45:17 15.1 C 65 %
18 12-05-2021 02:55:17 15.1 C 65 %
19 12-05-2021 03:05:17 15.1 C 65 %
20 12-05-2021 03:15:17 15.1 C 65 %
21 12-05-2021 03:25:17 15 C 65 %
22 12-05-2021 03:35:17 15.1 C 65 %
23 12-05-2021 03:45:17 15 C 65 %
24 12-05-2021 03:55:17 15 C 65 %
25 12-05-2021 04:05:17 15 C 65 %
Sensor: Nr:Datum:Temp:Feuchte:
G-T/H 26 12-05-2021 04:16:17 15 C 65 %
27 12-05-2021 04:25:17 15 C 65 %
28 12-05-2021 04:35:18 15 C 65 %
29 12-05-2021 04:45:17 15 C 64 %
30 12-05-2021 04:55:17 14.9 C 65 %
31 12-05-2021 05:05:17 15 C 64 %
32 12-05-2021 05:15:17 14.9 C 65 %
33 12-05-2021 05:25:17 14.9 C 65 %
34 12-05-2021 05:36:17 14.9 C 65 %
35 12-05-2021 05:45:17 14.9 C 65 %
36 12-05-2021 05:55:17 14.9 C 65 %
37 12-05-2021 06:06:17 14.9 C 65 %
38 12-05-2021 06:15:17 14.8 C 65 %
39 12-05-2021 06:25:17 14.8 C 65 %
40 12-05-2021 06:36:17 14.8 C 65 %
41 12-05-2021 06:45:18 14.8 C 65 %
42 12-05-2021 06:55:18 14.8 C 65 %
43 12-05-2021 07:05:17 14.8 C 65 %
44 12-05-2021 07:15:17 14.7 C 65 %
45 12-05-2021 07:25:17 14.7 C 65 %
46 12-05-2021 07:35:17 14.7 C 65 %
47 12-05-2021 07:46:17 14.7 C 65 %
48 12-05-2021 07:56:17 14.7 C 65 %
49 12-05-2021 08:06:17 14.7 C 65 %
50 12-05-2021 08:16:17 14.7 C 65 %
Sensor: Nr:Datum:Temp:Feuchte:
G-T/H 51 12-05-2021 08:26:17 14.7 C 65 %
52 12-05-2021 08:36:17 14.7 C 65 %
53 12-05-2021 08:46:17 14.7 C 65 %
54 12-05-2021 08:56:17 14.7 C 65 %
55 12-05-2021 09:05:18 14.6 C 65 %
56 12-05-2021 09:16:17 14.6 C 65 %
57 12-05-2021 09:26:17 14.6 C 65 %
58 12-05-2021 09:35:18 14.6 C 65 %
59 12-05-2021 09:45:17 14.6 C 65 %
60 12-05-2021 09:55:17 14.6 C 65 %
61 12-05-2021 10:05:17 14.6 C 65 %
62 12-05-2021 10:16:17 14.6 C 65 %
63 12-05-2021 10:26:17 14.6 C 65 %
64 12-05-2021 10:36:17 14.6 C 65 %
65 12-05-2021 10:45:18 14.6 C 65 %
66 12-05-2021 10:55:18 14.7 C 65 %
67 12-05-2021 11:05:18 14.6 C 65 %
68 12-05-2021 11:16:17 14.6 C 65 %
69 12-05-2021 11:26:17 14.6 C 65 %
70 12-05-2021 11:36:17 14.7 C 65 %
71 12-05-2021 11:46:17 14.7 C 65 %
72 12-05-2021 11:56:17 14.7 C 65 %
73 12-05-2021 12:05:18 14.7 C 65 %
74 12-05-2021 12:15:17 14.7 C 65 %
75 12-05-2021 12:25:18 14.7 C 65 %
Sensor: Nr:Datum:Temp:Feuchte:
G-T/H 76 12-05-2021 12:36:17 14.7 C 65 %
77 12-05-2021 12:45:18 14.7 C 65 %
78 12-05-2021 12:55:18 14.7 C 65 %
79 12-05-2021 13:05:18 14.7 C 65 %
80 12-05-2021 13:16:17 14.8 C 65 %
81 12-05-2021 13:26:17 14.8 C 65 %
82 12-05-2021 13:36:17 14.8 C 65 %
83 12-05-2021 13:45:18 14.8 C 65 %
84 12-05-2021 13:55:18 14.8 C 65 %
85 12-05-2021 14:06:17 14.8 C 65 %
86 12-05-2021 14:16:17 14.8 C 65 %
87 12-05-2021 14:26:17 14.8 C 65 %
88 12-05-2021 14:36:17 14.9 C 65 %
89 12-05-2021 14:46:17 14.9 C 65 %
90 12-05-2021 14:56:17 14.9 C 65 %
91 12-05-2021 15:06:17 14.9 C 65 %
92 12-05-2021 15:16:17 14.9 C 65 %
93 12-05-2021 15:26:17 14.9 C 65 %
94 12-05-2021 15:36:18 14.9 C 65 %
95 12-05-2021 15:46:17 14.9 C 65 %
96 12-05-2021 15:56:17 15 C 64 %
97 12-05-2021 16:06:17 15.3 C 61 %
98 12-05-2021 16:15:18 15.1 C 61 %
99 12-05-2021 16:25:18 15.1 C 61 %
100 12-05-2021 16:36:17 15.1 C 61 %
Sensor: Nr:Datum:Temp:Feuchte:
G-T/H 101 12-05-2021 16:46:17 15.1 C 61 %
102 12-05-2021 16:56:17 15.1 C 62 %
103 12-05-2021 17:06:17 15.1 C 62 %
104 12-05-2021 17:16:17 15.1 C 62 %
105 12-05-2021 17:26:17 15.2 C 62 %
106 12-05-2021 17:36:17 15.2 C 62 %
107 12-05-2021 17:46:17 15.2 C 62 %
108 12-05-2021 17:56:17 15.2 C 62 %
109 12-05-2021 18:06:17 15.2 C 62 %
110 12-05-2021 18:16:17 15.2 C 62 %
111 12-05-2021 18:26:17 15.3 C 62 %
112 12-05-2021 18:36:17 15.3 C 62 %
113 12-05-2021 18:46:17 15.3 C 62 %
114 12-05-2021 18:56:17 15.4 C 62 %
115 12-05-2021 19:06:17 15.4 C 62 %
116 12-05-2021 19:16:17 15.4 C 62 %
117 12-05-2021 19:26:17 15.4 C 62 %
118 12-05-2021 19:36:17 15.5 C 62 %
119 12-05-2021 19:46:18 15.5 C 62 %
120 12-05-2021 19:56:18 15.5 C 62 %
121 12-05-2021 20:06:17 15.5 C 62 %
122 12-05-2021 20:16:17 15.5 C 62 %
123 12-05-2021 20:26:17 15.5 C 62 %
124 12-05-2021 20:36:17 15.5 C 62 %
125 12-05-2021 20:46:17 15.5 C 63 %
Sensor: Nr:Datum:Temp:Feuchte:
G-T/H 126 12-05-2021 20:56:17 15.4 C 63 %
127 12-05-2021 21:06:17 15.4 C 63 %
128 12-05-2021 21:16:17 15.4 C 63 %
129 12-05-2021 21:26:17 15.4 C 63 %
130 12-05-2021 21:36:17 15.4 C 63 %
131 12-05-2021 21:46:17 15.3 C 63 %
132 12-05-2021 21:56:17 15.3 C 63 %
133 12-05-2021 22:06:17 15.3 C 63 %
134 12-05-2021 22:16:17 15.3 C 63 %
135 12-05-2021 22:26:17 15.3 C 63 %
136 12-05-2021 22:36:18 15.3 C 63 %
137 12-05-2021 22:46:17 15.3 C 63 %
138 12-05-2021 22:56:17 15.3 C 63 %
139 12-05-2021 23:06:17 15.3 C 63 %
140 12-05-2021 23:16:17 15.3 C 63 %
141 12-05-2021 23:26:17 15.3 C 63 %
142 12-05-2021 23:36:18 15.3 C 63 %
143 12-05-2021 23:46:17 15.3 C 63 %
144 12-05-2021 23:56:17 15.2 C 63 %

Legende:
   Min
   Max


Maximal/Minimal-Werte vom 12.05.2021 - 12.05.2021

Sensor Min Max Avg
Temp
(Aussen-T/F)
9.7 °C
12-05-2021  23:56:17
24.6 °C
12-05-2021  15:16:17
14.59 °C
Feuchte
(Aussen-T/F)
20 %
12-05-2021  15:06:17
47 %
12-05-2021  01:35:17
35.5 %
Temp
(G-T/H)
14.6 °C
12-05-2021  09:05:18
15.5 °C
12-05-2021  19:36:17
15.02 °C
Feuchte
(G-T/H)
61 %
12-05-2021  16:06:17
65 %
12-05-2021  00:15:17
64.08 %

Die Daten stammen von einer Davis Vantage Pro 2 Wetter-Station und werden unter Linux mit der Software wview2wettercgi und aufbereitet. Alle Angaben erfolgen ohne Gewähr für ihre Vollständigkeit oder Richtigkeit.
Kontakt: Rainer Krienke krienke@uni-koblenz.de . Meine Webseiten an der Uni Koblenz oder privat.
Version: $Revision: 0.78 $